Probability
0 0 0 0 0 0 0 0 0 0 0 0 16 23 35 39 13 3 19 42 65 94 97 100 100 100 100 100 100 100 100 100 100 100 100 100 100 100 100 100 100 100 100 100 100 100 100 100 100
0 0 0 0 0 0 0 0 0 0 0 13 19 48 58 61 52 42 35 55 77 94 97 100 100 100 100 100 100 100 100 100 100 100 100 100 100 100 100 100 100 100 100 100 100 100 100 100 100
0 0 0 0 0 0 0 0 0 0 3 13 19 42 55 61 65 65 68 74 81 90 94 100 100 100 100 100 100 100 100 100 100 100 100 100 100 100 100 100 100 100 100 100 100 100 100 100 100
0 0 0 0 0 0 0 0 0 6 6 16 32 45 39 58 58 65 71 81 81 90 97 97 100 100 100 100 100 100 100 100 100 100 100 100 100 100 100 100 100 100 100 100 100 100 100 100 97
0 0 0 0 0 0 0 0 0 3 10 13 26 32 45 58 68 68 71 81 87 94 94 97 100 100 100 100 100 100 100 100 100 100 100 100 100 100 100 100 100 100 100 100 100 97 100 100 100
0 0 0 0 0 0 0 3 3 10 13 16 29 48 45 65 65 71 77 77 81 84 90 97 100 100 100 100 100 100 100 100 100 100 100 100 100 100 100 100 100 100 100 100 100 100 100 100 100
0 0 0 0 0 0 0 6 10 16 16 13 35 45 45 48 65 71 71 71 71 81 81 87 90 97 100 100 100 100 100 100 100 100 100 100 100 100 100 100 100 100 100 100 100 100 100 97 97
0 0 0 0 0 0 0 6 6 10 16 16 45 39 45 42 45 58 61 71 71 74 74 81 87 90 94 100 100 100 97 100 100 100 100 100 100 100 100 100 100 100 100 100 100 100 100 97 97
0 0 0 0 0 0 3 10 6 13 16 32 42 45 42 45 48 48 55 61 65 71 74 74 81 84 87 94 100 100 97 100 100 100 100 100 100 100 100 100 100 100 100 100 100 100 100 100 97
0 0 0 0 0 0 0 10 6 13 29 42 52 39 42 45 48 48 48 55 58 58 55 61 71 74 84 87 84 87 90 94 97 97 90 90 90 90 90 94 100 100 97 97 100 100 97 90 84
0 0 0 0 0 0 6 10 10 19 23 42 52 39 42 45 39 39 35 42 48 48 48 52 61 65 71 77 77 81 81 77 84 84 87 84 84 74 77 74 74 77 77 81 84 81 84 77 55
0 0 0 0 0 0 0 10 19 26 26 39 48 45 39 39 35 35 39 35 32 45 45 45 52 61 61 65 68 74 74 74 74 74 74 65 58 58 58 61 65 68 65 61 65 65 61 55 42
0 0 0 0 0 0 6 26 26 23 32 45 45 39 29 26 26 26 26 32 35 35 39 42 45 48 52 61 65 65 65 68 58 58 61 58 55 48 39 42 52 45 48 48 45 48 48 32 29
0 0 0 0 0 0 19 19 26 23 35 32 32 26 26 23 19 19 19 19 23 29 32 35 35 42 48 42 48 48 39 45 48 42 42 48 35 39 35 35 32 32 29 32 29 29 29 19 16
0 0 0 0 0 3 6 13 23 23 26 23 23 19 16 10 10 13 13 10 13 16 16 26 29 29 29 32 26 29 32 39 39 39 42 42 35 35 32 29 26 26 23 23 23 16 16 13 13
0 0 0 0 0 0 3 6 23 16 29 13 16 19 19 10 6 10 6 13 10 13 10 16 19 10 13 13 19 26 26 26 26 23 26 29 32 26 29 29 26 19 13 16 16 16 16 16 13
0 0 0 0 0 0 3 6 23 16 32 23 19 19 13 6 10 13 10 13 6 3 6 6 6 6 10 13 16 19 19 23 23 16 16 16 23 19 13 23 16 16 13 10 13 13 10 13 13
0 0 0 0 0 0 6 16 23 23 19 19 19 19 16 13 10 10 13 6 6 3 6 3 0 0 6 13 10 13 13 13 3 3 6 13 13 13 13 19 16 13 10 10 10 10 6 6 3
0 0 0 0 3 6 6 16 19 26 26 19 23 16 19 23 16 16 10 6 6 3 0 3 0 0 3 13 13 13 10 6 10 6 6 6 6 10 13 19 13 13 10 10 10 6 3 3 3
0 0 0 0 3 6 16 19 26 29 23 16 13 23 19 19 16 10 3 6 3 0 3 3 3 3 3 3 6 6 6 3 13 6 6 6 6 13 13 10 13 13 13 10 6 3 0 0 0
0 0 0 3 3 6 16 23 29 29 23 13 13 13 13 23 19 6 3 3 3 3 3 3 3 3 3 0 0 0 0 3 3 6 3 3 6 6 13 10 10 10 10 10 6 3 0 0 0
0 0 0 0 0 0 0 0 29 29 26 23 13 10 13 23 13 6 6 10 10 6 3 3 3 3 3 0 0 0 0 6 6 3 3 3 6 6 3 6 6 6 6 6 3 6 0 3 3
0 0 0 0 0 0 0 0 10 29 35 29 26 13 16 13 13 6 6 3 3 3 3 3 3 3 3 0 0 0 0 0 0 0 3 3 3 3 3 3 3 6 6 6 3 3 3 3 0
0 0 0 0 0 0 0 0 0 19 29 32 32 16 13 6 3 3 3 3 3 3 3 3 3 0 3 3 3 0 0 0 3 3 3 3 0 0 0 0 0 0 3 3 3 3 0 0 3
0 0 0 0 0 0 0 0 0 0 6 23 26 19 16 6 3 3 6 6 3 3 3 3 3 0 0 0 0 0 0 0 0 3 3 0 0 0 0 0 0 0 0 0 0 3 3 3 3
0 0 0 0 0 0 0 0 0 6 13 16 26 13 10 6 3 3 3 3 3 3 3 0 0 0 0 0 0 0 0 0 0 0 0 0 0 0 0 0 0 0 0 0 0 0 3 3 3
0 0 0 0 0 0 0 0 6 13 19 13 13 16 10 6 3 3 3 3 0 0 0 0 0 0 0 0 0 0 0 0 0 0 0 0 0 0 0 0 0 0 0 0 0 0 3 3 3
0 0 0 0 0 0 0 0 0 10 19 19 16 10 6 3 3 3 3 0 0 0 0 0 0 0 0 0 0 0 0 0 0 0 0 0 0 0 0 0 0 0 0 0 0 0 0 0 0
0 0 0 0 0 0 0 0 0 3 13 13 13 10 3 3 3 0 0 0 0 0 0 0 0 0 0 0 0 0 0 0 0 0 0 0 0 0 0 0 0 0 0 0 0 0 0 0 0
0 0 0 0 0 0 0 0 0 0 6 6 6 0 3 0 0 0 0 0 0 0 0 0 0 0 0 0 0 0 0 0 0 0 0 0 0 0 0 0 0 0 0 0 0 0 0 0 0
Height
5875 5876 5878 5879 5881 5882 5882 5882 5882 5883 5884 5885 5887 5887 5888 5889 5891 5894 5892 5891 5891 5892 5892 5893 5894 5895 5895 5896 5897 5897 5898 5899 5900 5901 5902 5903 5903 5903 5904 5904 5904 5904 5904 5904 5904 5904 5903 5903 5902
5873 5874 5876 5877 5878 5879 5879 5880 5880 5881 5882 5884 5885 5886 5886 5887 5888 5889 5888 5888 5889 5890 5891 5892 5892 5893 5894 5895 5895 5896 5897 5898 5899 5900 5901 5902 5902 5903 5903 5903 5903 5903 5904 5904 5903 5903 5903 5903 5902
5870 5872 5874 5875 5876 5877 5877 5878 5878 5879 5881 5882 5884 5884 5885 5885 5886 5886 5886 5887 5887 5888 5889 5890 5890 5891 5892 5893 5894 5895 5896 5897 5898 5898 5899 5900 5901 5901 5902 5902 5902 5902 5903 5903 5903 5903 5903 5902 5902
5868 5870 5871 5873 5874 5874 5874 5875 5876 5878 5879 5881 5882 5883 5883 5884 5884 5884 5884 5884 5885 5885 5886 5887 5888 5889 5890 5891 5892 5893 5894 5895 5896 5897 5898 5899 5899 5900 5901 5901 5901 5901 5901 5902 5902 5902 5902 5902 5901
5865 5867 5869 5870 5871 5871 5871 5872 5874 5876 5877 5879 5880 5880 5881 5882 5882 5882 5882 5883 5883 5884 5884 5884 5886 5887 5888 5889 5890 5891 5892 5893 5894 5895 5896 5897 5898 5898 5899 5899 5900 5900 5900 5900 5900 5900 5900 5900 5900
5863 5865 5867 5867 5868 5868 5869 5870 5872 5874 5876 5877 5878 5879 5879 5880 5880 5880 5880 5880 5881 5881 5881 5882 5883 5884 5885 5886 5887 5888 5889 5891 5892 5893 5894 5895 5896 5896 5897 5897 5897 5898 5898 5898 5898 5898 5898 5898 5898
5861 5862 5864 5865 5865 5865 5866 5868 5870 5872 5873 5874 5876 5877 5877 5877 5878 5878 5878 5878 5878 5878 5878 5879 5880 5881 5882 5883 5884 5885 5887 5888 5889 5891 5892 5893 5894 5894 5895 5895 5895 5895 5896 5896 5896 5896 5896 5896 5896
5858 5860 5861 5861 5862 5863 5864 5866 5868 5870 5871 5872 5873 5874 5875 5875 5875 5875 5875 5875 5875 5875 5875 5876 5877 5878 5879 5880 5881 5883 5884 5885 5887 5888 5889 5890 5891 5892 5892 5892 5893 5893 5893 5893 5893 5893 5893 5893 5893
5855 5858 5858 5858 5859 5860 5862 5863 5865 5867 5869 5870 5871 5872 5872 5872 5872 5872 5872 5872 5872 5872 5872 5873 5874 5875 5876 5877 5878 5880 5881 5883 5884 5885 5886 5887 5888 5889 5889 5890 5890 5890 5890 5891 5891 5891 5891 5891 5891
5852 5854 5855 5856 5857 5858 5859 5861 5863 5864 5866 5867 5868 5869 5869 5870 5870 5870 5869 5869 5869 5869 5869 5869 5871 5872 5873 5874 5875 5877 5878 5880 5881 5882 5883 5884 5885 5886 5886 5887 5887 5887 5887 5887 5887 5888 5887 5887 5887
5849 5851 5851 5853 5854 5855 5857 5859 5860 5862 5864 5865 5866 5866 5867 5867 5867 5867 5867 5866 5866 5867 5867 5866 5867 5868 5869 5870 5872 5873 5875 5876 5878 5879 5880 5881 5881 5882 5882 5883 5883 5884 5884 5884 5884 5884 5884 5884 5884
5846 5847 5848 5850 5851 5853 5855 5856 5858 5859 5861 5862 5863 5863 5864 5865 5865 5864 5864 5864 5864 5864 5864 5863 5863 5864 5864 5866 5868 5869 5871 5872 5873 5875 5876 5877 5877 5878 5878 5879 5880 5880 5880 5880 5880 5880 5879 5879 5880
5843 5844 5845 5847 5849 5851 5852 5854 5856 5857 5858 5859 5860 5860 5861 5862 5861 5861 5861 5861 5861 5861 5860 5859 5859 5861 5862 5863 5864 5865 5866 5868 5869 5870 5871 5872 5873 5874 5874 5875 5875 5875 5875 5875 5875 5875 5875 5875 5875
5840 5841 5843 5845 5846 5848 5850 5852 5854 5854 5855 5856 5857 5858 5858 5858 5858 5857 5857 5857 5857 5857 5856 5856 5857 5857 5857 5859 5860 5861 5862 5863 5865 5865 5866 5867 5868 5869 5870 5870 5870 5870 5870 5871 5871 5871 5870 5870 5870
5837 5840 5841 5843 5844 5846 5848 5850 5851 5852 5853 5854 5854 5855 5855 5855 5855 5854 5853 5852 5853 5853 5853 5853 5853 5853 5853 5854 5855 5856 5858 5859 5860 5861 5862 5862 5863 5863 5864 5864 5864 5864 5865 5865 5865 5865 5865 5865 5864
5835 5837 5839 5840 5841 5843 5846 5847 5848 5849 5850 5851 5851 5851 5851 5851 5851 5851 5850 5849 5849 5849 5849 5848 5848 5849 5849 5850 5851 5852 5853 5854 5856 5857 5857 5858 5857 5857 5858 5858 5859 5859 5859 5859 5859 5860 5859 5859 5859
5832 5834 5835 5837 5838 5839 5842 5843 5844 5845 5846 5847 5848 5848 5848 5848 5848 5847 5847 5846 5846 5845 5845 5844 5844 5845 5845 5846 5847 5847 5848 5849 5851 5852 5852 5852 5852 5852 5852 5853 5853 5853 5853 5853 5853 5853 5853 5853 5853
5829 5830 5832 5834 5835 5836 5838 5840 5841 5842 5843 5844 5845 5845 5845 5845 5845 5845 5844 5844 5843 5842 5842 5841 5841 5841 5840 5841 5842 5843 5844 5845 5846 5846 5846 5846 5846 5846 5846 5847 5847 5847 5847 5846 5846 5846 5846 5846 5846
5825 5827 5829 5831 5832 5834 5835 5836 5838 5839 5840 5841 5842 5842 5842 5842 5842 5841 5840 5840 5840 5840 5839 5839 5838 5838 5838 5838 5839 5839 5840 5841 5841 5841 5841 5842 5841 5840 5841 5841 5841 5841 5841 5840 5840 5840 5839 5839 5839
5823 5825 5827 5828 5829 5831 5832 5834 5835 5836 5837 5838 5838 5838 5838 5838 5838 5837 5836 5836 5836 5836 5836 5835 5835 5835 5835 5835 5835 5836 5836 5836 5837 5837 5837 5837 5837 5836 5836 5836 5835 5835 5834 5834 5833 5833 5833 5832 5832
5820 5823 5824 5826 5827 5828 5830 5831 5833 5834 5834 5835 5835 5835 5835 5834 5834 5833 5833 5832 5832 5832 5832 5831 5831 5831 5831 5831 5831 5832 5832 5832 5832 5832 5832 5832 5831 5830 5830 5829 5829 5828 5828 5827 5826 5826 5826 5826 5825
5818 5820 5822 5823 5824 5825 5827 5829 5830 5831 5832 5832 5832 5832 5831 5831 5830 5829 5828 5828 5828 5828 5827 5827 5826 5827 5827 5827 5827 5827 5827 5827 5827 5826 5826 5825 5825 5824 5823 5823 5822 5822 5821 5820 5819 5819 5818 5818 5818
5816 5817 5819 5820 5821 5823 5824 5825 5828 5828 5828 5829 5829 5828 5827 5827 5826 5826 5825 5824 5824 5823 5823 5823 5823 5823 5822 5822 5822 5822 5822 5822 5821 5820 5820 5819 5818 5817 5817 5816 5816 5815 5814 5814 5812 5812 5811 5811 5811
5813 5815 5816 5818 5819 5820 5821 5823 5824 5824 5825 5825 5825 5825 5824 5823 5822 5821 5821 5820 5819 5819 5818 5818 5818 5818 5818 5818 5818 5817 5817 5816 5815 5814 5813 5812 5812 5811 5810 5810 5809 5808 5808 5807 5806 5805 5804 5804 5803
5811 5813 5815 5815 5816 5817 5818 5819 5821 5821 5821 5821 5821 5820 5819 5819 5818 5817 5816 5816 5816 5815 5815 5814 5814 5813 5813 5812 5812 5811 5810 5810 5809 5808 5807 5806 5805 5804 5803 5803 5802 5801 5800 5799 5799 5798 5797 5796 5796
5808 5811 5813 5813 5814 5815 5815 5815 5817 5817 5816 5816 5816 5815 5814 5814 5813 5812 5811 5811 5811 5810 5810 5809 5809 5808 5807 5806 5805 5804 5804 5803 5802 5801 5799 5799 5798 5797 5796 5795 5795 5794 5793 5792 5792 5791 5790 5789 5789
5806 5807 5809 5810 5811 5812 5812 5813 5813 5813 5813 5812 5811 5810 5809 5809 5808 5807 5806 5806 5806 5805 5805 5804 5803 5802 5801 5800 5799 5798 5797 5796 5794 5793 5792 5791 5790 5789 5788 5788 5787 5786 5785 5785 5784 5784 5783 5782 5782
5804 5805 5806 5807 5808 5808 5809 5809 5810 5809 5809 5808 5807 5806 5805 5804 5803 5802 5801 5801 5800 5800 5799 5798 5797 5796 5795 5793 5792 5791 5789 5788 5787 5785 5784 5783 5782 5782 5781 5780 5779 5779 5778 5778 5777 5777 5776 5776 5775
5800 5802 5803 5804 5804 5805 5805 5808 5806 5806 5804 5803 5802 5801 5800 5799 5798 5798 5797 5796 5795 5794 5793 5792 5791 5789 5788 5786 5785 5783 5782 5781 5779 5778 5777 5776 5775 5774 5773 5772 5772 5771 5771 5770 5770 5770 5769 5769 5769
5797 5798 5799 5801 5801 5801 5802 5806 5802 5801 5800 5798 5797 5796 5794 5794 5793 5792 5791 5790 5789 5788 5787 5786 5784 5783 5781 5780 5778 5776 5775 5774 5772 5771 5770 5768 5767 5767 5766 5765 5765 5764 5764 5763 5763 5763 5763 5763 5762
Wind_Speed
14 14 15 15 15 15 16 17 18 17 16 14 12 10 10 10 10 10 10 10 8 8 8 8 8 8 8 7 7 6 5 5 5 5 5 5 5 5 5 6 7 8 8 8 9 9 9 9 8
14 14 15 15 16 16 18 19 19 18 17 15 13 11 11 12 12 12 11 10 10 10 10 9 9 9 9 8 8 8 7 7 6 6 6 6 6 6 6 7 8 8 8 8 8 8 9 9 8
15 15 15 15 16 17 19 20 20 19 18 16 14 13 12 14 15 14 13 13 12 11 12 11 11 10 10 10 10 9 9 8 8 8 7 7 7 7 7 8 8 8 8 8 8 9 9 9 8
15 15 15 16 17 19 20 21 21 20 18 16 15 13 13 15 15 15 15 15 13 13 14 13 12 12 11 11 11 10 10 10 10 9 9 8 8 9 9 9 9 9 9 9 9 9 9 9 9
16 15 16 16 18 20 22 23 22 20 19 17 15 14 15 16 17 16 16 16 14 14 15 14 13 13 13 12 12 11 11 12 11 11 10 10 10 10 10 11 11 11 11 11 11 11 10 10 10
16 15 16 17 20 22 24 24 22 21 19 18 16 15 16 17 17 17 16 15 15 15 14 13 13 13 13 13 14 13 13 13 13 12 12 12 12 12 12 12 13 12 12 12 12 12 11 11 11
15 16 17 20 22 24 25 24 23 21 20 18 17 16 16 17 18 18 17 16 17 16 14 13 14 14 14 15 15 15 15 14 14 14 13 13 13 13 13 13 13 14 14 14 14 14 13 13 13
16 16 18 21 23 25 25 24 23 22 21 19 18 17 17 18 18 18 18 19 18 17 14 14 15 15 15 15 16 16 15 15 15 15 15 15 15 15 15 15 15 16 16 15 15 15 15 15 15
16 17 20 23 24 25 25 25 24 22 21 19 17 17 18 18 18 18 19 19 18 16 15 14 15 17 17 17 17 17 16 16 16 16 16 16 16 17 17 17 17 17 17 17 17 16 16 16 17
17 19 22 24 25 26 26 25 24 23 22 19 17 16 17 17 18 19 18 17 17 16 16 16 17 18 18 19 18 18 17 17 17 17 17 17 18 18 19 19 19 18 19 19 19 19 18 18 18
19 21 23 25 26 27 26 26 25 25 23 21 18 17 18 18 19 19 17 17 15 15 15 16 17 18 18 18 19 19 19 19 18 19 19 19 19 20 20 20 20 20 20 20 20 20 20 19 19
20 23 24 25 26 27 27 26 26 25 23 21 20 18 18 19 19 18 18 17 16 15 16 15 15 16 17 18 19 20 21 20 20 20 20 20 20 21 20 21 21 21 21 21 21 21 20 20 20
21 23 25 26 26 27 27 27 26 24 23 22 20 19 19 19 18 18 17 17 17 15 14 14 16 16 18 18 18 19 21 21 22 22 21 22 22 21 21 22 22 22 22 22 22 22 22 22 22
21 23 24 25 26 27 27 27 26 24 23 22 21 21 20 18 18 18 17 17 16 15 15 14 14 16 16 17 18 19 21 22 22 22 21 22 23 23 23 23 23 23 24 24 23 24 24 24 24
21 22 23 25 26 27 27 27 26 24 24 23 21 21 20 18 18 18 18 17 17 16 15 14 14 15 16 16 18 19 21 22 22 22 22 23 23 24 24 24 24 25 25 25 25 26 26 26 25
19 21 23 25 26 26 26 26 25 24 23 22 21 20 20 18 18 18 18 16 16 15 14 14 14 15 17 17 18 20 22 22 22 23 23 23 24 24 25 25 25 25 26 26 27 27 28 27 26
18 20 23 25 25 26 25 25 25 23 22 21 20 20 19 18 18 18 17 15 14 14 13 14 14 16 16 18 20 21 21 22 22 22 22 23 24 23 24 24 25 25 26 27 28 28 28 28 27
18 19 21 23 24 25 24 24 24 22 21 20 19 19 18 17 18 18 17 15 13 13 14 15 15 14 15 16 17 20 21 21 21 22 22 22 23 22 22 23 24 26 27 27 28 28 28 28 28
19 19 19 21 23 23 22 22 22 20 20 19 18 17 17 18 18 18 18 16 15 14 14 15 15 15 15 15 16 19 21 20 20 21 20 20 20 21 22 23 24 26 27 28 29 29 29 28 28
18 18 18 19 21 21 21 21 21 19 18 17 17 17 18 18 19 19 17 17 16 15 15 15 14 15 16 16 16 17 17 17 19 20 20 21 21 22 23 23 24 25 27 28 28 28 28 29 29
17 17 18 19 20 21 20 19 19 17 16 15 15 16 16 18 19 18 18 17 17 15 16 17 16 16 17 17 17 18 19 19 20 21 22 23 23 24 24 25 25 26 27 28 28 28 28 29 29
17 16 18 20 20 20 20 19 17 16 15 15 16 16 16 17 18 19 18 17 18 18 17 17 17 17 18 18 18 20 20 21 22 23 24 24 25 25 25 25 26 27 27 28 28 29 29 29 29
16 17 17 18 19 19 19 19 16 15 14 15 15 16 17 18 18 18 18 18 19 18 17 17 18 19 19 19 20 21 21 22 23 24 24 25 25 25 25 26 26 27 27 27 28 28 28 29 29
17 17 17 18 18 19 19 19 17 15 15 16 16 17 18 18 18 19 19 19 19 19 18 18 18 19 19 20 21 21 22 23 24 25 25 25 26 26 26 27 27 27 27 27 27 27 27 28 28
17 18 18 17 17 17 18 18 16 15 16 17 19 19 19 20 20 19 20 20 20 19 19 18 19 19 20 21 22 23 24 25 26 26 26 27 27 27 27 27 27 27 26 26 26 26 26 26 27
16 17 18 18 18 17 17 18 16 16 16 17 17 18 19 20 20 20 20 19 19 19 19 19 20 21 22 23 23 24 24 26 27 27 28 28 28 28 28 27 27 27 26 26 26 26 26 26 26
16 17 18 19 18 18 18 18 18 17 17 18 18 18 19 19 18 18 18 18 18 19 20 21 21 22 23 24 24 25 26 26 27 27 28 28 27 27 28 28 28 27 27 26 26 26 26 25 25
16 16 17 18 18 18 17 17 17 18 18 20 19 19 18 18 19 18 18 18 19 20 20 21 22 23 24 25 26 27 27 27 27 27 27 26 27 27 27 27 27 26 26 26 25 25 25 25 24
16 17 17 17 18 18 18 16 16 17 18 18 18 18 18 19 18 19 20 19 20 21 22 21 22 23 24 25 26 26 27 27 27 27 27 27 26 26 25 25 25 25 25 25 25 25 25 24 24
16 17 17 17 17 17 17 16 16 17 17 18 18 18 18 19 19 19 20 21 21 22 22 21 22 23 24 24 25 25 25 25 26 26 25 25 24 24 24 24 24 24 24 24 25 24 24 24 24
Wind_Direction
245 241 240 239 238 238 238 239 241 245 248 250 256 267 279 291 297 297 290 284 277 274 267 266 263 253 248 246 240 235 235 240 246 258 269 281 294 304 310 314 319 325 329 335 339 343 346 347 345
243 239 236 236 234 234 235 238 239 245 249 251 253 262 276 287 296 298 293 285 279 276 267 261 256 248 243 241 240 239 239 245 251 259 265 273 284 292 297 303 308 314 319 325 331 336 338 339 338
240 237 233 231 230 232 235 237 239 244 249 252 255 263 275 284 288 293 292 293 288 275 267 260 256 246 241 237 237 239 242 247 252 256 260 267 277 283 288 295 300 303 309 316 321 324 326 327 327
236 233 230 227 225 230 233 236 239 242 247 252 256 263 274 282 290 292 295 297 293 278 266 259 254 242 237 235 234 240 246 250 253 256 260 265 273 280 284 288 292 296 301 307 312 315 315 315 316
234 232 227 222 223 227 231 235 239 241 245 250 259 269 276 283 291 298 299 297 292 280 265 254 251 242 238 238 239 242 246 249 253 256 261 264 270 275 279 282 286 288 294 299 303 306 305 304 305
231 228 222 217 219 225 231 236 239 241 245 252 260 269 279 287 294 300 299 293 288 284 264 252 248 244 239 240 243 241 243 247 250 254 259 263 267 272 275 279 282 285 290 294 296 297 296 296 298
226 222 217 216 219 224 231 237 240 244 247 253 261 272 282 291 296 299 296 293 289 280 260 257 254 246 242 242 242 242 243 245 250 254 259 262 265 269 272 276 279 282 286 288 291 293 293 293 293
221 218 215 215 219 225 233 238 241 245 247 256 266 277 283 290 295 296 295 295 291 281 265 257 253 246 242 240 241 244 246 246 251 254 257 260 263 265 269 272 275 279 282 284 287 289 289 290 290
217 214 212 214 218 226 233 237 242 247 251 258 267 278 285 291 295 295 295 297 291 281 269 259 248 246 245 242 242 243 246 248 251 252 254 258 261 264 267 271 274 276 279 281 283 284 286 289 288
215 212 213 216 219 225 232 237 243 248 252 259 268 277 283 291 296 296 295 293 289 284 273 260 251 247 246 242 240 240 243 246 249 250 252 255 259 263 266 269 272 274 277 278 280 282 284 286 285
213 212 216 218 221 227 233 238 245 250 254 261 268 277 283 287 293 294 288 291 289 283 273 263 252 250 246 242 237 239 241 244 248 250 253 256 259 261 263 265 268 271 273 275 277 280 281 282 283
215 216 219 221 224 229 235 241 246 250 255 262 268 276 285 290 293 291 289 290 289 282 277 271 257 250 243 241 238 238 239 242 245 249 253 256 258 261 263 265 266 268 270 272 274 276 279 279 279
219 221 222 225 228 232 238 242 245 251 257 263 270 280 286 289 291 291 296 294 293 285 282 278 262 250 243 239 239 240 240 242 245 247 250 253 256 260 263 264 265 267 268 269 272 275 277 276 277
224 227 228 229 231 235 238 242 246 251 258 264 270 278 283 285 289 290 291 293 289 287 286 280 266 250 243 242 242 242 239 241 246 248 250 253 256 259 262 263 266 267 269 270 273 274 275 275 276
228 229 230 232 234 237 240 243 248 255 260 265 271 277 279 284 289 292 293 292 288 285 283 273 261 252 247 244 243 245 243 244 246 249 252 255 256 258 260 262 265 267 270 271 272 272 273 275 276
229 229 230 232 235 238 241 245 251 257 262 265 269 273 277 283 288 291 290 288 286 283 281 275 260 255 251 244 244 245 241 241 247 250 253 255 256 258 260 261 264 267 269 270 272 273 274 274 276
228 228 230 233 235 238 243 246 250 255 258 261 266 271 276 283 289 292 291 284 280 280 277 274 262 255 253 248 249 245 244 247 249 250 254 256 256 259 263 264 267 268 269 270 270 271 273 273 275
227 228 229 231 235 239 244 246 248 248 251 256 263 272 276 281 286 290 292 285 283 282 276 274 262 261 256 252 253 248 248 250 251 254 257 259 259 261 266 270 270 271 272 272 272 271 272 273 273
226 226 229 230 235 240 244 244 245 247 251 255 262 272 279 281 285 288 289 285 286 288 282 278 270 266 260 258 257 252 255 254 259 262 264 267 270 270 271 274 274 274 274 274 273 273 272 272 271
225 226 227 230 236 239 242 244 245 246 250 257 264 271 277 280 285 286 285 285 284 283 283 281 277 271 267 263 264 265 265 264 265 269 271 273 273 275 276 276 277 277 276 276 276 275 275 274 272
225 225 228 232 236 240 244 246 245 246 250 257 267 273 276 277 281 284 284 284 284 283 281 276 274 269 266 266 265 268 270 271 272 272 272 273 274 275 277 277 278 279 279 278 277 276 276 275 272
225 225 229 232 235 239 243 246 249 249 253 258 266 272 277 277 280 284 283 284 284 281 278 274 271 267 265 266 267 268 269 270 272 274 277 277 276 276 277 278 279 279 279 279 277 277 278 276 274
223 225 228 230 237 242 245 250 250 252 257 260 267 273 280 282 282 283 282 284 283 280 278 274 268 268 268 269 271 272 272 273 275 276 277 277 277 276 276 277 278 278 279 279 278 277 277 276 274
227 229 229 234 242 246 248 256 259 260 264 266 272 277 282 285 283 279 282 285 281 277 275 274 270 270 271 272 274 276 276 277 278 278 277 277 276 275 275 275 276 278 278 278 279 279 277 276 274
231 232 234 239 244 249 255 262 267 269 271 274 276 279 280 285 284 281 283 282 277 274 273 274 273 273 274 276 278 278 279 279 279 279 278 277 276 274 274 274 275 277 278 278 278 278 278 276 273
233 236 241 244 248 251 256 264 270 273 278 279 279 280 280 285 282 281 282 277 274 272 272 274 275 276 278 280 281 281 281 281 280 279 279 277 276 275 275 274 275 276 276 276 277 277 277 276 274
235 238 242 247 251 254 259 265 270 271 277 281 283 284 283 285 282 280 279 277 274 272 273 276 278 279 281 281 281 281 281 282 282 280 279 277 276 275 274 274 275 275 275 275 275 275 275 275 275
238 242 246 249 254 257 262 265 271 275 279 282 283 283 282 281 282 279 277 276 272 273 275 277 279 280 281 281 281 281 281 281 281 280 279 277 276 275 275 275 275 275 274 275 275 274 274 274 274
243 246 249 253 256 262 266 268 273 277 280 281 281 282 282 280 278 275 274 275 277 278 278 279 280 281 282 283 282 281 280 280 279 278 278 278 278 277 276 276 275 275 274 274 274 273 274 273 273
247 249 252 258 262 264 269 274 277 281 283 284 283 282 282 280 277 276 275 277 279 280 281 281 281 282 284 284 283 282 280 279 279 279 279 279 278 277 275 276 275 274 273 272 272 273 273 273 271